Time,TemperatureF,DewpointF,PressureIn,WindDirection,WindDirectionDegrees,WindSpeedMPH,WindSpeedGustMPH,Humidity,HourlyPrecipIn,Conditions,Clouds,dailyrainin,SoftwareType,DateUTC
2013-09-01 00:29:00,73.5,47.1,29.64,West,268,0.0,12.0,39,0.00,CLR,,0.00,WeatherDisplay:10.37,2013-09-01 05:29:00,
2013-09-01 00:59:00,70.9,47.2,29.66,East,91,1.0,10.0,43,0.00,CLR,,0.00,WeatherDisplay:10.37,2013-09-01 05:59:00,
2013-09-01 01:29:00,68.8,47.7,29.66,SE,130,1.0,10.0,47,0.00,CLR,,0.00,WeatherDisplay:10.37,2013-09-01 06:29:00,
2013-09-01 01:59:00,67.8,47.9,29.66,East,83,0.0,6.0,49,0.00,CLR,,0.00,WeatherDisplay:10.37,2013-09-01 06:59:00,
2013-09-01 02:29:00,60.9,47.4,29.69,East,83,0.0,3.0,61,0.00,CLR,,0.00,WeatherDisplay:10.37,2013-09-01 07:29:00,
2013-09-01 02:59:00,57.6,47.1,29.70,East,83,0.0,5.0,68,0.00,CLR,,0.00,WeatherDisplay:10.37,2013-09-01 07:59:00,
2013-09-01 03:29:00,56.0,47.1,29.71,East,83,0.0,3.0,72,0.00,CLR,,0.00,WeatherDisplay:10.37,2013-09-01 08:29:00,
2013-09-01 03:59:00,54.6,46.5,29.71,East,83,0.0,2.0,74,0.00,CLR,,0.00,WeatherDisplay:10.37,2013-09-01 08:59:00,
2013-09-01 04:29:00,54.2,46.8,29.73,East,83,0.0,3.0,76,0.00,CLR,,0.00,WeatherDisplay:10.37,2013-09-01 09:29:00,
2013-09-01 04:59:00,53.8,47.1,29.73,East,83,0.0,1.0,78,0.00,CLR,,0.00,WeatherDisplay:10.37,2013-09-01 09:59:00,
2013-09-01 05:29:00,53.5,47.5,29.73,East,83,0.0,1.0,80,0.00,CLR,,0.00,WeatherDisplay:10.37,2013-09-01 10:29:00,
2013-09-01 05:59:00,53.7,48.4,29.73,East,83,0.0,1.0,82,0.00,CLR,,0.00,WeatherDisplay:10.37,2013-09-01 10:59:00,
2013-09-01 06:29:00,53.2,48.2,29.75,East,83,0.0,2.0,83,0.00,CLR,,0.00,WeatherDisplay:10.37,2013-09-01 11:29:00,
2013-09-01 06:59:00,52.5,47.5,29.76,East,83,0.0,0.0,83,0.00,CLR,,0.00,WeatherDisplay:10.37,2013-09-01 11:59:00,
2013-09-01 07:29:00,51.6,47.5,29.80,East,83,0.0,0.0,86,0.00,CLR,,0.00,WeatherDisplay:10.37,2013-09-01 12:29:00,
2013-09-01 07:59:00,51.9,48.2,29.81,East,83,0.0,1.0,87,0.00,CLR,,0.00,WeatherDisplay:10.37,2013-09-01 12:59:00,
2013-09-01 08:30:00,57.9,51.1,29.85,East,83,0.0,2.0,78,0.00,CLR,,0.00,WeatherDisplay:10.37,2013-09-01 13:30:00,
2013-09-01 09:00:00,65.9,52.5,29.80,East,83,0.0,1.0,62,0.00,CLR,,0.00,WeatherDisplay:10.37,2013-09-01 14:00:00,
2013-09-01 09:30:00,74.4,52.8,29.77,East,83,0.0,1.0,47,0.00,CLR,,0.00,WeatherDisplay:10.37,2013-09-01 14:30:00,
2013-09-01 10:00:00,78.6,50.1,29.76,ENE,72,1.0,3.0,37,0.00,CLR,,0.00,WeatherDisplay:10.37,2013-09-01 15:00:00,
2013-09-01 10:30:00,80.5,47.9,29.77,ESE,117,1.0,6.0,32,0.00,CLR,,0.00,WeatherDisplay:10.37,2013-09-01 15:30:00,
2013-09-01 11:00:00,82.0,47.5,29.76,East,81,0.0,6.0,30,0.00,CLR,,0.00,WeatherDisplay:10.37,2013-09-01 16:00:00,
2013-09-01 11:30:00,82.8,46.4,29.67,ENE,73,1.0,10.0,28,0.00,CLR,,0.00,WeatherDisplay:10.37,2013-09-01 16:30:00,
2013-09-01 11:59:00,84.3,46.7,29.67,East,88,1.0,8.0,27,0.00,CLR,,0.00,WeatherDisplay:10.37,2013-09-01 16:59:00,
2013-09-01 12:29:00,84.3,45.7,29.70,East,83,1.0,12.0,26,0.00,CLR,,0.00,WeatherDisplay:10.37,2013-09-01 17:29:00,
2013-09-01 12:59:00,84.7,47.0,29.68,East,101,5.0,13.0,27,0.00,CLR,,0.00,WeatherDisplay:10.37,2013-09-01 17:59:00,
2013-09-01 13:29:00,85.5,46.7,29.71,NE,43,1.0,10.0,26,0.00,CLR,,0.00,WeatherDisplay:10.37,2013-09-01 18:29:00,
2013-09-01 13:59:00,84.9,44.1,29.70,ENE,76,1.0,12.0,24,0.00,CLR,,0.00,WeatherDisplay:10.37,2013-09-01 18:59:00,
2013-09-01 14:29:00,85.8,44.8,29.72,East,95,3.0,12.0,24,0.00,CLR,,0.00,WeatherDisplay:10.37,2013-09-01 19:29:00,
2013-09-01 14:59:00,85.9,46.0,29.72,East,79,5.0,10.0,25,0.00,CLR,,0.00,WeatherDisplay:10.37,2013-09-01 19:59:00,
2013-09-01 15:29:00,87.2,46.0,29.72,ENE,58,6.0,12.0,24,0.00,CLR,,0.00,WeatherDisplay:10.37,2013-09-01 20:29:00,